This is the latest recevied weather packets stored in our database for station/object KI6PPU. If no packets are shown the sender has not sent any weather packets the latest 10 day(s).
| Time | Temp. | Humidity | Pressure | Rain* | Wind** | Luminosity | Snow |
|---|---|---|---|---|---|---|---|
| 1777990369 | 10.56° C | 99% | 1016.7 hPa | 0 mm | - | 32 W/m² | - |
| 1777990064 | 10.56° C | 99% | 1016.7 hPa | 0 mm | - | 38 W/m² | - |
| 1777989761 | 10° C | 99% | 1016.7 hPa | 0 mm | - | 35 W/m² | - |
| 1777989458 | 10° C | 99% | 1016.4 hPa | 0 mm | - | 28 W/m² | - |
| 1777989154 | 10° C | 99% | 1016.6 hPa | 0 mm | - | 16 W/m² | - |
| 1777988850 | 10° C | 99% | 1016.6 hPa | 0 mm | - | 15 W/m² | - |
| 1777988548 | 10° C | 99% | 1016.8 hPa | 0 mm | - | 11 W/m² | - |
| 1777988244 | 10° C | 99% | 1016.5 hPa | 0 mm | - | 7 W/m² | - |
| 1777987941 | 10° C | 99% | 1016.5 hPa | 0 mm | - | 4 W/m² | - |
| 1777987636 | 10° C | 99% | 1016.4 hPa | 0 mm | - | 4 W/m² | - |
| 1777987334 | 10° C | 99% | 1016.5 hPa | 0 mm | - | 1 W/m² | - |
| 1777987032 | 10° C | 99% | 1016.3 hPa | 0 mm | - | 0 W/m² | - |
| 1777986729 | 10° C | 99% | 1016.4 hPa | 0 mm | - | 0 W/m² | - |
| 1777986427 | 10° C | 99% | 1016.5 hPa | 0 mm | - | 0 W/m² | - |
| 1777986125 | 10° C | 99% | 1016.5 hPa | 0 mm | - | 0 W/m² | - |
| 1777985821 | 10° C | 99% | 1016.5 hPa | 0 mm | - | 0 W/m² | - |
| 1777985519 | 10° C | 99% | 1016.3 hPa | 0 mm | - | 0 W/m² | - |
| 1777985215 | 10° C | 99% | 1016.5 hPa | 0 mm | - | 0 W/m² | - |
| 1777984912 | 10° C | 99% | 1016.3 hPa | 0 mm | - | 0 W/m² | - |
| 1777984607 | 10° C | 99% | 1016.4 hPa | 0 mm | - | 0 W/m² | - |
| 1777984304 | 10° C | 99% | 1016.1 hPa | 0 mm | - | 0 W/m² | - |
| 1777984001 | 10° C | 99% | 1016.3 hPa | 0 mm | - | 0 W/m² | - |
| 1777983698 | 10° C | 99% | 1016.3 hPa | 0 mm | - | 0 W/m² | - |
| 1777983395 | 10° C | 99% | 1016.3 hPa | 0 mm | - | 0 W/m² | - |
| 1777983092 | 10° C | 99% | 1016.3 hPa | 0 mm | - | 0 W/m² | - |
* Rain latest hour (hover to see other rain measurements)
** Current wind speed in m/s (hover to see current wind gust speed)